Weather History for Sparta, TN

Change the Weather History Date:

Sunday, February 3, 2013

  Actual Average (KCSV) Record (KCSV)
Temperature  
Mean Temperature 32 °F 37 °F  
Max Temperature 42 °F 46 °F 68 °F (1986)
Min Temperature 21 °F 28 °F -5 °F (1965)
Degree Days  
Heating Degree Days 34    
Month to date heating degree days  
Since 1 July heating degree days  
Cooling Degree Days 0    
Month to date cooling degree days  
Year to date cooling degree days  
Moisture  
Dew Point 30 °F    
Average Humidity 89    
Maximum Humidity 100    
Minimum Humidity 65    
Precipitation  
Precipitation 0.00 in 0.17 in 1.95 in (1990)
Month to date precipitation 0.49  
Year to date precipitation 5.25  
Sea Level Pressure  
Sea Level Pressure 30.08 in    
Wind  
Wind Speed 5 mph (West)    
Max Wind Speed 16 mph    
Max Gust Speed 22 mph    
Visibility 10 miles    
Events      
T = Trace of Precipitation, MM = Missing Value Source: NWS Daily Summary

Daily Weather History Graph

Daily Weather History Graph

Search for Another Location

Airport:

Trip Planner

Search our weather history database for the weather conditions in past years. The results will help you decide how hot, cold, wet, or windy it might be!

Date:

Astronomy

Feb. 03, 2013 Rise Set
Actual Time 6:41 AM CST 5:11 PM CST
Civil Twilight 6:14 AM CST 5:38 PM CST
Nautical Twilight 5:43 AM CST 6:08 PM CST
Astronomical Twilight 5:13 AM CST 6:38 PM CST
Moon 12:07 AM CST (2/3) 10:49 AM CST (2/3)
Length of Visible Light 11h 24m
Length of Day
10h 30m
Waning Gibbous, 48% of the Moon is Illuminated
Feb 3
Waning Gibbous
Feb 10
New
Feb 17
First Quarter
Feb 25
Full
Mar 4
Last Quarter

Hourly Weather History & Observations

Time (CST) Temp. Windchill Dew Point Humidity Pressure Visibility Wind Dir Wind Speed Gust Speed Precip Events Conditions
12:15 AM 32.0 °F 28.7 °F 32.0 °F 100% 30.09 in 10.0 mi South 3.5 mph - N/A   Mostly Cloudy
12:35 AM 32.0 °F 27.5 °F 32.0 °F 100% 30.09 in 10.0 mi SSW 4.6 mph - N/A   Mostly Cloudy
12:55 AM 32.0 °F 28.7 °F 32.0 °F 100% 30.08 in 10.0 mi SW 3.5 mph - N/A   Mostly Cloudy
1:35 AM 33.8 °F 29.6 °F 32.0 °F 93% 30.08 in 10.0 mi SW 4.6 mph - N/A   Mostly Cloudy
2:15 AM 33.8 °F 28.6 °F 32.0 °F 93% 30.07 in 10.0 mi SSW 5.8 mph - N/A   Mostly Cloudy
2:35 AM 32.0 °F 27.5 °F 32.0 °F 100% 30.06 in 10.0 mi SSW 4.6 mph - N/A   Mostly Cloudy
3:15 AM 32.0 °F 27.5 °F 32.0 °F 100% 30.04 in 10.0 mi SSW 4.6 mph - N/A   Mostly Cloudy
3:35 AM 32.0 °F 28.7 °F 32.0 °F 100% 30.03 in 10.0 mi SSW 3.5 mph - N/A   Mostly Cloudy
3:55 AM 33.8 °F 30.8 °F 32.0 °F 93% 30.02 in 10.0 mi SSW 3.5 mph - N/A   Mostly Cloudy
4:15 AM 33.8 °F 30.8 °F 32.0 °F 93% 30.01 in 10.0 mi SSW 3.5 mph - N/A   Scattered Clouds
4:35 AM 33.8 °F 28.6 °F 32.0 °F 93% 30.01 in 10.0 mi SW 5.8 mph - N/A   Mostly Cloudy
4:55 AM 33.8 °F 28.6 °F 32.0 °F 93% 30.02 in 7.0 mi WSW 5.8 mph - N/A   Mostly Cloudy
5:15 AM 32.0 °F 27.5 °F 30.2 °F 93% 30.02 in 4.0 mi WSW 4.6 mph - N/A   Mostly Cloudy
5:35 AM 32.0 °F 27.5 °F 30.2 °F 93% 30.01 in 8.0 mi SW 4.6 mph - N/A   Mostly Cloudy
6:15 AM 30.2 °F 25.4 °F 30.2 °F 100% 30.00 in 4.0 mi SSW 4.6 mph - N/A   Overcast
6:35 AM 30.2 °F 24.3 °F 30.2 °F 100% 30.00 in 3.0 mi SSW 5.8 mph - N/A   Overcast
6:55 AM 30.2 °F 25.4 °F 30.2 °F 100% 29.99 in 8.0 mi South 4.6 mph - N/A   Mostly Cloudy
7:15 AM 30.2 °F 25.4 °F 30.2 °F 100% 29.99 in 8.0 mi South 4.6 mph - N/A   Partly Cloudy
7:35 AM 30.2 °F 25.4 °F 30.2 °F 100% 29.99 in 7.0 mi SSW 4.6 mph - N/A   Clear
7:55 AM 33.8 °F 30.8 °F 33.8 °F 100% 30.01 in - SW 3.5 mph - N/A   Unknown
8:15 AM 33.8 °F 28.6 °F 33.8 °F 100% 30.00 in 10.0 mi SW 5.8 mph - N/A   Mostly Cloudy
8:35 AM 33.8 °F 28.6 °F 33.8 °F 100% 30.02 in 10.0 mi SW 5.8 mph - N/A   Overcast
8:55 AM 37.4 °F 32.8 °F 35.6 °F 93% 30.02 in 10.0 mi West 5.8 mph - N/A   Scattered Clouds
9:15 AM 37.4 °F 31.4 °F 35.6 °F 93% 30.02 in 10.0 mi WNW 8.1 mph - N/A   Partly Cloudy
9:35 AM 37.4 °F 29.8 °F 35.6 °F 93% 30.03 in 10.0 mi NW 11.5 mph - N/A   Scattered Clouds
9:55 AM 39.2 °F 32.0 °F 35.6 °F 87% 30.04 in 10.0 mi NW 11.5 mph 21.9 mph N/A   Mostly Cloudy
10:15 AM 39.2 °F 32.5 °F 35.6 °F 87% 30.04 in 10.0 mi WNW 10.4 mph - N/A   Mostly Cloudy
10:35 AM 41.0 °F 35.2 °F 35.6 °F 81% 30.04 in 10.0 mi NW 9.2 mph - N/A   Mostly Cloudy
10:55 AM 41.0 °F 34.7 °F 35.6 °F 81% 30.04 in 10.0 mi NNW 10.4 mph - N/A   Mostly Cloudy
11:15 AM 41.0 °F 34.7 °F 33.8 °F 76% 30.04 in 10.0 mi NW 10.4 mph - N/A   Mostly Cloudy
11:35 AM 42.8 °F 37.0 °F 33.8 °F 70% 30.04 in 10.0 mi NW 10.4 mph - N/A   Mostly Cloudy
11:55 AM 41.0 °F 33.9 °F 33.8 °F 76% 30.04 in 10.0 mi WNW 12.7 mph - N/A   Mostly Cloudy
12:15 PM 42.8 °F 36.2 °F 33.8 °F 70% 30.04 in 10.0 mi NW 12.7 mph - N/A   Mostly Cloudy
12:35 PM 42.8 °F 36.2 °F 33.8 °F 70% 30.04 in 10.0 mi NW 12.7 mph - N/A   Mostly Cloudy
12:55 PM 42.8 °F 37.0 °F 32.0 °F 66% 30.05 in 10.0 mi NNW 10.4 mph - N/A   Mostly Cloudy
1:15 PM 41.0 °F 34.3 °F 32.0 °F 70% 30.05 in 10.0 mi NNW 11.5 mph - N/A   Mostly Cloudy
1:35 PM 41.0 °F 33.5 °F 30.2 °F 65% 30.06 in 10.0 mi NW 13.8 mph - N/A   Mostly Cloudy
1:55 PM 39.2 °F 30.5 °F 30.2 °F 70% 30.07 in 10.0 mi NW 16.1 mph - N/A   Mostly Cloudy
2:15 PM 39.2 °F 32.0 °F 30.2 °F 70% 30.08 in 10.0 mi NNW 11.5 mph - N/A   Mostly Cloudy
2:35 PM 37.4 °F 29.8 °F 30.2 °F 75% 30.08 in 10.0 mi North 11.5 mph - N/A   Mostly Cloudy
2:55 PM 37.4 °F 30.3 °F 28.4 °F 70% 30.09 in 10.0 mi NW 10.4 mph - N/A   Mostly Cloudy
3:15 PM 37.4 °F 29.3 °F 28.4 °F 70% 30.10 in 10.0 mi NNW 12.7 mph - N/A   Mostly Cloudy
3:35 PM 37.4 °F 30.8 °F 28.4 °F 70% 30.11 in 10.0 mi NW 9.2 mph - N/A   Overcast
3:55 PM 35.6 °F 29.2 °F 28.4 °F 75% 30.11 in 10.0 mi NNW 8.1 mph - N/A   Overcast
4:15 PM 35.6 °F 31.7 °F 28.4 °F 75% 30.11 in 10.0 mi North 4.6 mph - N/A   Overcast
4:35 PM 35.6 °F 30.7 °F 28.4 °F 75% 30.11 in 10.0 mi Variable 5.8 mph - N/A   Mostly Cloudy
4:55 PM 35.6 °F 31.7 °F 28.4 °F 75% 30.12 in 10.0 mi NNE 4.6 mph - N/A   Scattered Clouds
5:15 PM 33.8 °F 29.6 °F 28.4 °F 81% 30.13 in 10.0 mi Variable 4.6 mph - N/A   Mostly Cloudy
5:35 PM 33.8 °F 30.8 °F 28.4 °F 81% 30.13 in 10.0 mi North 3.5 mph - N/A   Mostly Cloudy
5:55 PM 32.0 °F - 28.4 °F 87% 30.13 in 10.0 mi Calm Calm - N/A   Partly Cloudy
6:15 PM 28.4 °F - 26.6 °F 93% 30.13 in 10.0 mi Calm Calm - N/A   Clear
6:35 PM 28.4 °F - 26.6 °F 93% 30.14 in 10.0 mi Calm Calm - N/A   Clear
6:55 PM 26.6 °F - 26.6 °F 100% 30.14 in 10.0 mi Calm Calm - N/A   Clear
7:15 PM 26.6 °F - 26.6 °F 100% 30.14 in 10.0 mi Calm Calm - N/A   Clear
7:35 PM 24.8 °F - 24.8 °F 100% 30.15 in 10.0 mi Calm Calm - N/A   Clear
7:55 PM 24.8 °F - 24.8 °F 100% 30.15 in 10.0 mi Calm Calm - N/A   Clear
8:15 PM 24.8 °F - 24.8 °F 100% 30.14 in 10.0 mi Calm Calm - N/A   Clear
8:35 PM 24.8 °F - 24.8 °F 100% 30.15 in 10.0 mi Calm Calm - N/A   Clear
8:55 PM 24.8 °F - 23.0 °F 93% 30.15 in 10.0 mi Calm Calm - N/A   Clear
9:15 PM 24.8 °F - 24.8 °F 100% 30.16 in 10.0 mi Calm Calm - N/A   Clear
9:35 PM 23.0 °F - 23.0 °F 100% 30.16 in 10.0 mi Calm Calm - N/A   Clear
9:55 PM 23.0 °F - 23.0 °F 100% 30.15 in 10.0 mi Calm Calm - N/A   Clear
10:15 PM 21.2 °F - 21.2 °F 100% 30.16 in 10.0 mi Calm Calm - N/A   Clear
10:35 PM 23.0 °F - 21.2 °F 93% 30.15 in 10.0 mi Calm Calm - N/A   Clear
10:55 PM 24.8 °F - 23.0 °F 93% 30.14 in 10.0 mi Calm Calm - N/A   Clear
11:15 PM 23.0 °F - 21.2 °F 93% 30.13 in 10.0 mi Calm Calm - N/A   Clear
11:35 PM 21.2 °F - 21.2 °F 100% 30.12 in 10.0 mi Calm Calm - N/A   Clear
11:55 PM 21.2 °F - 21.2 °F 100% 30.13 in 10.0 mi Calm Calm - N/A   Clear